This demonstration page uses our WeatherBlox Daily Observations layout. Learn more.

Left ArrowRight Arrow

Hourly Observations for September 14, 2018

Temp ( °F °C ) Dew Point ( °F °C ) Humidity (%) Winds ( mph kmh ) Pressure ( in mb ) Visibility ( mi km ) Precip ( " mm )
12:53 am 00:53 Clear 65 18.3 63 17.2 93 93 WNW 3 6 30.10 1019 9 14 0.00 0.00
1:53 am 01:53 Clear 64 17.8 63 17.2 96 96 Calm 30.10 1019 7 11 0.00 0.00
2:53 am 02:53 Clear 63 17.2 61 16.1 93 93 Calm 30.10 1019 8 13 0.00 0.00
3:53 am 03:53 Clear with Mist and Fog 63 17.2 61 16.1 93 93 Calm 30.11 1020 5 8 0.00 0.00
4:53 am 04:53 Clear with Mist and Fog 62 16.7 61 16.1 96 96 Calm 30.11 1020 6 10 0.00 0.00
5:53 am 05:53 Clear 62 16.7 60 15.6 93 93 Calm 30.11 1020 8 13 0.00 0.00
6:53 am 06:53 Clear 63 17.2 61 16.1 93 93 W 3 6 30.12 1020 8 13 0.00 0.00
7:53 am 07:53 Sunny with Mist and Fog 64 17.8 63 17.2 96 96 Calm 30.14 1021 5 8 0.00 0.00
8:53 am 08:53 Sunny 70 21.1 66 18.9 87 87 Calm 30.14 1021 9 14 0.00 0.00
9:53 am 09:53 Sunny 75 23.9 69 20.6 82 82 VRB 3 6 30.13 1020 8 13 0.00 0.00
10:53 am 10:53 Sunny 78 25.6 71 21.7 79 79 NE 5 7 30.12 1020 9 14 0.00 0.00
11:53 am 11:53 Sunny 82 27.8 72 22.2 72 72 VRB 7 11 30.11 1020 10 16 0.00 0.00
12:53 pm 12:53 Sunny 85 29.4 70 21.1 61 61 NE 8 13 30.11 1020 10 16 0.00 0.00
1:53 pm 13:53 Sunny 86 30 69 20.6 57 57 N 6 9 30.10 1019 10 16 0.00 0.00
2:53 pm 14:53 Mostly Sunny 87 30.6 67 19.4 51 51 ENE 3 6 30.08 1019 10 16 0.00 0.00
3:53 pm 15:53 Mostly Sunny 88 31.1 67 19.4 50 50 VRB 3 6 30.06 1018 10 16 0.00 0.00
4:53 pm 16:53 Sunny 89 31.7 67 19.4 48 48 N 6 9 30.05 1018 10 16 0.00 0.00
5:53 pm 17:53 Sunny 89 31.7 66 18.9 47 47 VRB 3 6 30.04 1017 10 16 0.00 0.00
6:53 pm 18:53 Sunny 83 28.3 67 19.4 59 59 N 5 7 30.04 1017 10 16 0.00 0.00
7:53 pm 19:53 Clear 77 25 71 21.7 82 82 N 5 7 30.05 1018 10 16 0.00 0.00
8:53 pm 20:53 Clear 77 25 69 20.6 77 77 N 5 7 30.06 1018 10 16 0.00 0.00
9:53 pm 21:53 Clear 79 26.1 67 19.4 67 67 N 5 7 30.07 1018 10 16 0.00 0.00
10:53 pm 22:53 Mostly Clear 76 24.4 67 19.4 74 74 N 7 11 30.08 1019 10 16 0.00 0.00
11:53 pm 23:53 Clear 75 23.9 68 20 79 79 N 5 7 30.08 1019 10 16 0.00 0.00

Powered by AerisWeather